Location: Wawayanda State Park
(41.1833°N, 74.4333°W)
Time: 07:48:09
(UTC-04:00)

RESURS DK-1 - Visible Passes

Search period start: 25 March 2017 00:00
Search period end: 04 April 2017 00:00
Orbit: 559 x 562 km, 69.9° (Epoch: 23 March)

Date Brightness Start Highest point End Pass type
(mag) Time Alt. Az. Time Alt. Az. Time Alt. Az.
25 Mar 3.8 20:36:54 10° NW 20:40:44 38° WSW 20:44:33 10° S visible
26 Mar 4.4 20:35:47 10° NW 20:39:19 27° WSW 20:42:49 10° SSW visible
27 Mar 5.0 20:34:48 10° WNW 20:37:52 20° WSW 20:40:55 10° SSW visible
28 Mar 5.3 20:34:02 10° WNW 20:36:24 15° WSW 20:38:45 10° SW visible
29 Mar 5.7 20:33:56 10° W 20:34:54 11° W 20:35:52 10° WSW visible
